[[{"header":{"parameterUnit":"m.s-1","parameterCategory":1,"la1":30.2991,"la2":30.254,"lo1":-89.0895,"lo2":-89.0444,"dy":0.0017,"dx":0.0017,"nx":28,"ny":28,"refTime":"2025-07-24T03:00:00:Z","depth":0,"parameterNumber":2,"parameterNumberName":"U-component_of_WINDS"},"data":[0,0,0,0,0,0,0,0,0,0,0,0,0,0,0,0,0,0,0,0,0,0,0,0,0,0,0,0,0,0,0,0,0,0,0,0,0,0,0,0,0,0,0,0,0,0,0,0,0,0,0,0,0,0,0,0,0,0,-2.6737,-2.6737,0,-2.6742,-2.6742,-2.6742,-2.6723,-2.6722,-2.6722,-2.6721,-2.6727,-2.6727,-2.6728,0,0,0,0,0,0,0,0,0,0,0,0,0,-2.671,-2.6711,-2.6737,-2.6737,-2.6737,-2.6742,-2.6742,-2.6742,-2.6723,-2.6722,-2.6722,-2.6721,-2.6727,-2.6727,-2.6728,0,0,0,0,0,0,0,0,0,0,0,0,0,-2.6719,-2.6711,-2.6737,-2.6728,-2.6727,-2.6742,-2.6742,-2.6742,-2.6723,-2.6722,-2.6721,-2.6721,-2.6726,-2.6727,-2.6728,-2.6752,0,0,-2.6731,-2.6732,0,0,0,0,0,0,0,0,-2.6719,-2.672,-2.6729,-2.6729,-2.6728,-2.6731,-2.6735,-2.6746,-2.6723,-2.6725,-2.6721,-2.672,-2.6729,-2.673,-2.6733,-2.6752,-2.6753,-2.6732,-2.6732,-2.6733,-2.6733,0,0,0,0,0,0,0,-2.6718,-2.672,-2.6739,-2.6729,-2.6728,-2.6724,-2.6724,-2.6737,-2.6732,-2.6725,-2.6723,-2.6724,-2.6728,-2.6732,-2.6733,-2.6753,-2.6732,-2.6732,-2.6733,-2.6733,-2.6794,-2.6795,0,0,0,0,0,0,-2.6719,-2.672,-2.6739,-2.6739,-2.6721,-2.6725,-2.6725,-2.6731,-2.6731,-2.6731,-2.6725,-2.6723,-2.673,-2.6731,-2.6733,-2.6761,-2.6733,-2.6734,-2.6734,-2.6793,-2.6794,-2.6795,0,0,0,0,0,0,-2.6718,-2.6721,-2.6738,-2.6729,-2.6731,-2.6726,-2.6733,-2.6731,-2.6735,-2.6732,-2.6731,-2.6729,-2.673,-2.6731,-2.6748,-2.6761,-2.6734,-2.6735,-2.6791,-2.6793,-2.6794,-2.6818,0,0,0,0,0,0,-2.6718,-2.6721,-2.6729,-2.6729,-2.6731,-2.6753,-2.6734,-2.6732,-2.6737,-2.6734,-2.6735,-2.6735,-2.6729,-2.6746,-2.6749,-2.6762,-2.6736,-2.679,-2.6792,-2.6794,-2.6816,-2.682,-2.6824,0,0,0,0,0,-2.6717,-2.6735,-2.673,-2.6732,-2.6742,-2.6754,-2.6755,-2.6748,-2.6738,-2.6747,-2.6745,-2.6735,-2.6759,-2.6748,-2.6751,-2.6765,-2.6789,-2.6792,-2.6794,-2.6815,-2.682,-2.6824,0,0,0,0,0,0,-2.6737,-2.6735,-2.6729,-2.6748,-2.6752,-2.6751,-2.6762,-2.6754,-2.676,-2.6758,-2.6749,-2.675,-2.6768,-2.6768,-2.6755,-2.6788,-2.6773,-2.6775,-2.6788,-2.6792,-2.6796,-2.6796,-2.6737,0,0,0,0,0,-2.6743,-2.6753,-2.6751,-2.6769,-2.6771,-2.6766,-2.6771,-2.6765,-2.6768,-2.677,-2.6769,-2.6772,-2.6781,-2.6787,-2.6794,-2.6816,-2.6817,-2.6827,-2.6831,-2.6834,-2.6837,-2.685,-2.6855,-2.6802,-2.6802,-2.6802,0,0,-2.6757,-2.6758,-2.6764,-2.6773,-2.6774,-2.6785,-2.6767,-2.6779,-2.6786,-2.6771,-2.6787,-2.6787,-2.679,-2.681,-2.6818,-2.681,-2.6852,-2.6837,-2.684,-2.6841,-2.6852,-2.6857,-2.6862,-2.6804,-2.6803,-2.6803,0,0,-2.6788,-2.6789,-2.6804,-2.6806,-2.681,-2.6807,-2.681,-2.6811,-2.6811,-2.6826,-2.6816,-2.6825,-2.684,-2.6843,-2.6846,-2.688,-2.6871,-2.6882,-2.6902,-2.6915,-2.6919,-2.6923,-2.6935,-2.694,-2.6885,-2.6885,-2.6885,0,-2.6804,-2.682,-2.6812,-2.6825,-2.683,-2.6817,-2.6832,-2.6835,-2.6841,-2.6844,-2.6835,-2.6854,-2.6856,-2.6876,-2.6885,-2.6888,-2.6892,-2.6882,-2.6919,-2.6922,-2.6926,-2.6938,-2.6942,-2.6886,-2.6886,-2.6886,-2.6886,0,-2.684,-2.6851,-2.6863,-2.6869,-2.6875,-2.6889,-2.6885,-2.6891,-2.6886,-2.6884,-2.6901,-2.6902,-2.691,-2.6915,-2.6909,-2.6935,-2.693,-2.692,-2.6904,-2.6932,-2.6943,-2.6948,-2.6888,-2.6888,-2.6887,-2.6887,0,0,-2.6883,-2.6886,-2.689,-2.6894,-2.6897,-2.6905,-2.6919,-2.6928,-2.6934,-2.6939,-2.695,-2.6964,-2.6955,-2.6959,-2.6954,-2.6965,-2.6992,-2.6954,-2.6954,-2.6961,-2.7022,-2.703,-2.7035,-2.6987,-2.6988,-2.6988,-2.7022,0,-2.6913,-2.6937,-2.6932,-2.6955,-2.6966,-2.6955,-2.6967,-2.697,-2.697,-2.6978,-2.6977,-2.6987,-2.6975,-2.6977,-2.6988,-2.6987,-2.7004,-2.6984,-2.6998,-2.6999,-2.6998,-2.7041,-2.7049,-2.708,-2.7026,-2.7027,-2.7027,0,-2.6952,-2.6959,-2.6983,-2.6986,-2.699,-2.7001,-2.7009,-2.7018,-2.7022,-2.7021,-2.7026,-2.7019,-2.7034,-2.7018,-2.7038,-2.7024,-2.703,-2.703,-2.7031,-2.7032,-2.7015,-2.7043,-2.709,-2.7095,-2.7034,-2.7033,-2.7033,0,-2.6981,-2.6996,-2.7013,-2.7017,-2.702,-2.7028,-2.703,-2.7034,-2.7039,-2.7046,-2.705,-2.7059,-2.7063,-2.707,-2.7066,-2.7055,-2.7087,-2.7071,-2.7087,-2.7087,-2.7094,-2.7094,-2.7143,-2.7097,-2.7097,-2.7097,-2.7097,0,-2.7016,-2.7032,-2.7027,-2.7037,-2.7055,-2.7049,-2.7067,-2.7067,-2.7071,-2.7082,-2.7072,-2.7083,-2.7077,-2.7087,-2.7084,-2.7101,-2.7103,-2.7103,-2.7102,-2.7104,-2.7104,-2.7108,-2.7105,-2.7098,-2.7098,-2.7098,-2.7098,0,-2.7051,-2.7049,-2.7067,-2.7069,-2.707,-2.7083,-2.7085,-2.7095,-2.7094,-2.7108,-2.7111,-2.7109,-2.7121,-2.7117,-2.713,-2.7128,-2.715,-2.7146,-2.7149,-2.7148,-2.7165,-2.7163,-2.7218,-2.7225,-2.7174,-2.7175,-2.7175,0,-2.7074,-2.7086,-2.709,-2.7097,-2.7099,-2.711,-2.7116,-2.7111,-2.7118,-2.7125,-2.7134,-2.7145,-2.7153,-2.7172,-2.7172,-2.7182,-2.7178,-2.7197,-2.718,-2.7182,-2.718,-2.7179,-2.7181,-2.72,-2.7201,-2.7201,-2.7202,0,-2.7114,-2.7113,-2.7122,-2.7131,-2.7139,-2.7146,-2.7152,-2.7158,-2.7154,-2.7162,-2.7174,-2.718,-2.7193,-2.7205,-2.7214,-2.7216,-2.7209,-2.7207,-2.7212,-2.7214,-2.7215,-2.7216,-2.7159,-2.7206,-2.7206,-2.7205,-2.7205,-2.7205,-2.7144,-2.7155,-2.716,-2.7171,-2.7175,-2.7181,-2.7191,-2.7192,-2.7202,-2.7212,-2.7209,-2.7223,-2.7228,-2.7239,-2.7243,-2.7254,-2.7247,-2.7253,-2.7254,-2.7256,-2.7259,-2.7213,-2.7255,-2.7255,-2.7255,-2.7255,-2.7255,0,-2.7185,-2.7188,-2.7198,-2.7208,-2.7216,-2.7209,-2.7216,-2.7224,-2.7236,-2.7241,-2.725,-2.7264,-2.7275,-2.7277,-2.7287,-2.7296,-2.7293,-2.7299,-2.7299,-2.7299,-2.7264,-2.7259,-2.7301,-2.7301,-2.7301,-2.7301,-2.7301,-2.7301,-2.7208,-2.7226,-2.7225,-2.7245,-2.7248,-2.7262,-2.7266,-2.7272,-2.7277,-2.7293,-2.7302,-2.7303,-2.7307,-2.7318,-2.7328,-2.7328,-2.7333,-2.734,-2.7339,-2.7306,-2.7302,-2.7297,-2.7293,-2.7341,-2.7341,-2.7374,-2.7374,-2.7375]},{"header":{"parameterUnit":"m.s-1","parameterCategory":1,"la1":30.2991,"la2":30.254,"lo1":-89.0895,"lo2":-89.0444,"dy":0.0017,"dx":0.0017,"nx":28,"ny":28,"refTime":"2025-07-24T03:00:00:Z","depth":0,"parameterNumber":3,"parameterNumberName":"V-component_of_WINDS"},"data":[0,0,0,0,0,0,0,0,0,0,0,0,0,0,0,0,0,0,0,0,0,0,0,0,0,0,0,0,0,0,0,0,0,0,0,0,0,0,0,0,0,0,0,0,0,0,0,0,0,0,0,0,0,0,0,0,0,0,4.1143,4.1144,0,4.1223,4.1224,4.1225,4.1216,4.1215,4.1214,4.1212,4.1292,4.1295,4.1298,0,0,0,0,0,0,0,0,0,0,0,0,0,4.098,4.0983,4.1143,4.1144,4.1145,4.1223,4.1224,4.1225,4.1216,4.1215,4.1213,4.1212,4.1291,4.1294,4.1298,0,0,0,0,0,0,0,0,0,0,0,0,0,4.1054,4.0984,4.1143,4.115,4.1152,4.1223,4.1224,4.1226,4.1217,4.1215,4.1213,4.1211,4.1289,4.1294,4.1299,4.1367,0,0,4.1314,4.1316,0,0,0,0,0,0,0,0,4.105,4.106,4.1148,4.115,4.1151,4.1208,4.1196,4.1273,4.1217,4.1192,4.1212,4.121,4.1265,4.1272,4.1291,4.1371,4.1374,4.1314,4.1317,4.1319,4.1321,0,0,0,0,0,0,0,4.1045,4.1057,4.1175,4.1149,4.1151,4.1148,4.1157,4.121,4.1238,4.1194,4.1193,4.1203,4.1266,4.1286,4.1293,4.1376,4.1314,4.1319,4.1322,4.1324,4.1516,4.1518,0,0,0,0,0,0,4.1038,4.1052,4.1172,4.1177,4.1095,4.1153,4.1162,4.1192,4.1237,4.1243,4.1205,4.1203,4.1279,4.1287,4.1296,4.1379,4.1319,4.1324,4.1327,4.1514,4.1516,4.1519,0,0,0,0,0,0,4.1035,4.1049,4.1169,4.1115,4.113,4.1158,4.1191,4.1194,4.1215,4.1246,4.125,4.1221,4.1278,4.1289,4.135,4.1381,4.1326,4.1331,4.1511,4.1515,4.1518,4.1546,0,0,0,0,0,0,4.103,4.1048,4.1075,4.1115,4.1133,4.1223,4.1193,4.1197,4.1224,4.1222,4.1262,4.1267,4.1277,4.1343,4.1355,4.1387,4.1335,4.1509,4.1513,4.1517,4.1542,4.155,4.1556,0,0,0,0,0,4.1024,4.1079,4.1076,4.1091,4.1167,4.1225,4.1234,4.1246,4.1226,4.1253,4.1273,4.1266,4.1376,4.1349,4.1363,4.1397,4.1507,4.1512,4.1516,4.1539,4.1548,4.1556,0,0,0,0,0,0,4.104,4.1084,4.1082,4.1151,4.1184,4.1223,4.1257,4.1255,4.1293,4.1289,4.1301,4.131,4.1372,4.1391,4.1359,4.1466,4.1439,4.1446,4.1451,4.146,4.1467,4.1461,4.1339,0,0,0,0,0,4.1052,4.1096,4.1132,4.1189,4.1206,4.1229,4.1254,4.126,4.1295,4.1308,4.1333,4.1365,4.1407,4.1435,4.1475,4.1545,4.1553,4.1575,4.1582,4.1588,4.1594,4.1633,4.1643,4.1535,4.1535,4.1535,0,0,4.1076,4.1106,4.1133,4.1193,4.122,4.1264,4.1241,4.1289,4.1322,4.1315,4.1375,4.1394,4.1431,4.1497,4.1527,4.1514,4.1626,4.1594,4.1598,4.1602,4.1639,4.1649,4.1658,4.1538,4.1537,4.1537,0,0,4.1143,4.117,4.1222,4.1249,4.1289,4.1304,4.1316,4.1356,4.1368,4.1429,4.1425,4.1464,4.1536,4.1563,4.1586,4.1664,4.1658,4.1676,4.1712,4.1749,4.1758,4.1766,4.1793,4.1803,4.1683,4.1683,4.1683,0,4.1168,4.1236,4.1248,4.1297,4.1323,4.1321,4.1372,4.1398,4.1449,4.1467,4.1452,4.1543,4.1568,4.164,4.1659,4.1678,4.1692,4.1672,4.1756,4.1764,4.1771,4.1797,4.1808,4.1685,4.1685,4.1684,4.1684,0,4.1265,4.1311,4.1348,4.1399,4.1429,4.1479,4.1498,4.1527,4.1531,4.1547,4.1608,4.1638,4.1685,4.1702,4.1705,4.1775,4.1766,4.1753,4.1726,4.1783,4.1808,4.1818,4.1688,4.1687,4.1686,4.1686,0,0,4.1344,4.1401,4.1414,4.1437,4.1482,4.1518,4.1567,4.1614,4.1639,4.1674,4.1716,4.1777,4.1766,4.1792,4.1799,4.1831,4.1891,4.1815,4.1816,4.1828,4.1969,4.1978,4.199,4.1888,4.189,4.1891,4.1966,0,4.1415,4.1504,4.1516,4.1594,4.1638,4.1636,4.1679,4.171,4.1727,4.1765,4.1783,4.1827,4.1809,4.1825,4.1857,4.1877,4.1919,4.1872,4.1926,4.1928,4.1916,4.2003,4.2012,4.2081,4.1976,4.1978,4.1979,0,4.1511,4.155,4.1632,4.1671,4.169,4.1728,4.1772,4.1809,4.1845,4.1854,4.1884,4.1886,4.1937,4.1908,4.1978,4.1945,4.1968,4.1981,4.1984,4.1989,4.1956,4.201,4.2104,4.2114,4.1994,4.1993,4.1992,0,4.156,4.1633,4.1692,4.1712,4.1759,4.1786,4.1806,4.184,4.1867,4.1905,4.1923,4.1966,4.1989,4.2022,4.2036,4.2014,4.2105,4.2077,4.2114,4.2113,4.2133,4.2131,4.2231,4.2148,4.2148,4.2147,4.2147,0,4.1639,4.1689,4.1715,4.1751,4.1808,4.1821,4.1876,4.1896,4.1926,4.1965,4.1966,4.2003,4.2019,4.2058,4.2069,4.2125,4.2135,4.2144,4.2146,4.2144,4.2143,4.2159,4.2155,4.215,4.215,4.2149,4.2149,0,4.1703,4.1723,4.1787,4.1826,4.1837,4.1877,4.191,4.1945,4.1961,4.2011,4.2024,4.2049,4.2095,4.2112,4.2168,4.2175,4.224,4.2238,4.2228,4.2229,4.2265,4.2261,4.2378,4.2394,4.23,4.2301,4.2302,0,4.1752,4.1791,4.1835,4.1862,4.1884,4.1927,4.1955,4.1969,4.1998,4.2042,4.2071,4.2117,4.2155,4.2229,4.2252,4.2295,4.2294,4.2332,4.23,4.2297,4.2295,4.2292,4.2296,4.2338,4.2339,4.234,4.234,0,4.1837,4.1845,4.1885,4.193,4.1963,4.1999,4.2033,4.2055,4.2074,4.2106,4.2154,4.2183,4.2241,4.2287,4.2331,4.2351,4.2349,4.235,4.2361,4.2359,4.2351,4.2356,4.2244,4.2347,4.2347,4.2346,4.2346,4.2345,4.1895,4.193,4.1966,4.2011,4.2039,4.2071,4.2106,4.2126,4.2167,4.2215,4.2221,4.2272,4.2307,4.2366,4.2388,4.2428,4.2418,4.2433,4.2437,4.2441,4.2443,4.2345,4.2436,4.2436,4.2436,4.2436,4.2435,0,4.198,4.2003,4.2045,4.2093,4.2129,4.2124,4.2162,4.2192,4.2237,4.227,4.2307,4.2362,4.2406,4.2433,4.2477,4.2504,4.2504,4.2515,4.2513,4.2518,4.245,4.2436,4.2514,4.2514,4.2514,4.2514,4.2514,4.2514,4.2028,4.2087,4.2099,4.217,4.2193,4.2244,4.2266,4.2295,4.2321,4.2382,4.242,4.2437,4.2467,4.2514,4.2554,4.2561,4.2577,4.2589,4.2595,4.2531,4.2523,4.2515,4.2502,4.2593,4.2593,4.2659,4.266,4.2661]}]]